Temperature
11 11 11 12 12 12 13 13 13 13 13 13 13 13 13 13 13 13 13 13 13 13 13 13 13 12 12 12 11 11 11 11 11 11 11 11 10 10 10 10 10 9 9
10 10 10 11 11 12 12 12 12 12 12 12 12 12 13 13 13 13 13 13 13 13 13 13 13 12 12 12 11 11 11 11 11 11 11 10 10 10 10 10 9 9 9
9 9 10 10 10 11 11 11 11 12 12 12 12 12 12 12 12 12 12 13 13 13 13 13 12 12 12 12 11 11 11 11 11 11 11 10 10 10 10 10 9 9 9
8 8 9 9 10 10 10 10 11 11 11 11 11 11 11 12 12 12 12 12 12 12 12 12 12 12 12 12 11 11 11 11 11 11 11 10 10 10 10 9 9 9 8
8 8 8 9 9 9 9 9 10 10 10 10 10 11 11 11 11 11 11 12 12 12 12 12 12 12 12 12 11 11 11 11 11 11 11 10 10 10 10 9 9 9 8
7 7 7 8 8 8 9 9 9 9 9 10 10 10 10 10 11 11 11 11 11 11 12 12 12 12 12 12 11 11 11 11 11 11 11 10 10 10 9 9 9 9 8
7 7 7 7 7 8 8 8 8 8 9 9 9 9 10 10 10 10 10 11 11 11 11 11 11 11 11 11 11 11 11 11 11 11 10 10 10 10 9 9 9 8 8
6 6 6 7 7 7 7 8 8 8 8 8 8 8 8 9 9 10 10 10 10 10 10 11 11 11 11 11 11 11 11 11 11 10 10 10 10 10 9 9 9 8 8
6 6 6 6 6 7 7 7 7 7 7 8 8 8 8 8 8 9 9 9 10 10 10 10 10 11 11 11 11 11 11 11 10 10 10 10 10 9 9 9 9 8 8
5 5 5 6 6 6 6 7 7 7 7 7 7 8 8 8 8 8 9 9 9 9 10 10 10 10 10 11 11 11 11 11 10 10 10 10 9 9 9 9 9 8 8
5 5 5 5 6 6 6 6 6 6 7 7 7 7 8 8 8 8 8 8 9 9 9 10 10 10 10 10 11 11 11 11 10 10 10 10 9 9 9 9 8 8 8
4 5 5 5 5 5 6 6 6 6 6 6 6 7 7 7 8 8 8 8 8 9 9 9 9 10 10 10 10 11 11 11 10 10 10 10 9 9 9 8 8 8 8
4 4 4 5 5 5 5 6 6 6 6 6 6 6 7 7 8 8 8 8 8 8 8 9 9 9 10 10 10 10 10 10 10 10 10 9 9 9 9 8 8 8 8
3 4 4 4 4 5 5 5 5 5 5 6 6 6 6 7 7 7 8 8 7 7 8 8 9 9 9 10 10 10 10 10 10 10 9 9 9 9 8 8 8 8 8
3 3 4 4 4 4 5 5 5 5 5 5 6 6 6 6 6 7 7 7 8 7 7 8 8 9 9 9 10 10 10 10 10 9 9 9 8 8 8 8 8 7 7
3 3 3 3 4 4 4 4 5 5 5 5 5 5 5 6 6 6 6 7 7 8 8 8 8 9 9 9 9 9 9 10 9 9 9 8 8 8 8 8 7 7 7
2 3 3 3 3 3 4 4 4 4 4 4 5 5 5 5 6 6 6 6 7 7 8 8 8 8 8 9 9 9 9 9 9 9 8 8 8 7 7 7 7 7 6
2 2 2 3 3 3 3 3 4 4 4 4 5 5 5 5 5 5 6 6 6 7 8 8 7 8 8 8 9 9 9 8 8 8 8 8 7 7 7 7 6 6 6
2 2 2 2 3 3 3 3 3 3 4 4 4 4 5 5 5 5 6 6 6 7 7 7 7 7 7 8 8 8 8 8 8 8 7 7 7 7 7 6 6 6 5
1 2 2 2 2 2 3 3 3 3 3 4 4 4 5 5 5 5 5 6 6 6 6 7 7 7 7 7 7 7 7 7 7 7 7 7 6 6 6 6 5 5 5
1 1 1 2 2 2 2 2 3 3 3 3 4 4 5 5 5 5 5 5 6 6 6 6 6 6 7 7 7 7 7 7 7 7 6 6 6 6 5 5 5 5 4
1 1 1 1 1 2 2 2 3 3 3 3 3 4 4 5 5 5 5 5 6 6 6 6 7 7 7 7 7 7 7 6 6 6 6 6 5 5 5 5 4 4 4
0 1 1 1 1 1 2 2 2 3 3 3 4 4 4 5 5 5 5 5 5 6 6 7 7 7 7 7 7 7 7 7 6 6 6 5 5 5 5 4 4 3 3
-0 0 0 1 1 1 2 2 2 2 3 3 4 4 4 5 5 5 5 5 5 5 6 6 7 7 7 7 7 7 7 6 6 5 5 5 4 4 4 4 3 3 3
-0 -0 0 0 1 1 1 2 2 2 3 3 4 4 4 4 4 5 5 5 5 5 5 6 6 6 6 7 6 6 6 6 5 5 5 5 4 4 3 3 3 3 2
-0 -0 0 0 1 1 1 1 2 2 2 3 3 4 4 4 4 4 5 5 5 5 5 5 6 6 6 6 6 6 6 6 5 5 4 4 4 4 3 2 2 2 2
Wind_Speed
2 3 3 2 3 2 3 3 3 5 6 7 7 8 7 7 7 8 9 15 18 19 19 19 19 18 17 17 17 16 15 14 13 12 11 10 10 9 9 8 8 7 7
3 3 4 4 3 3 3 4 4 4 5 6 7 8 8 8 7 7 9 12 17 19 20 20 19 19 19 18 18 17 16 15 14 13 13 12 11 10 9 9 9 8 8
4 4 4 4 4 4 4 4 4 4 5 5 6 7 7 7 7 7 8 10 13 17 19 20 20 19 20 20 19 18 17 16 15 15 14 13 12 11 11 10 9 9 9
6 4 4 5 5 4 4 5 5 4 5 5 5 6 6 5 7 7 8 9 11 13 16 19 20 20 20 20 20 19 18 17 17 16 15 14 13 12 11 10 10 9 9
6 5 5 5 5 4 4 5 5 5 5 5 5 5 5 5 6 7 7 9 10 12 13 16 19 20 20 21 20 20 19 18 17 16 16 15 14 12 12 11 10 10 10
6 5 5 6 6 5 5 5 6 5 5 5 5 5 5 6 5 7 8 8 9 12 13 14 15 16 19 20 20 20 19 18 18 17 16 15 14 13 12 12 11 11 11
7 6 6 6 6 6 6 6 6 6 5 4 3 3 4 5 6 7 7 7 8 9 11 13 13 13 14 19 20 20 19 19 17 16 16 15 15 14 13 12 11 11 11
7 7 7 6 7 6 7 7 6 6 5 5 3 2 2 3 5 6 5 7 7 6 8 11 12 13 12 13 15 19 19 19 18 17 16 16 15 14 13 12 12 12 11
8 7 8 7 7 7 7 8 7 7 7 6 5 4 3 4 2 4 6 6 7 7 7 8 11 12 13 13 14 17 19 19 19 18 16 16 14 14 13 12 12 11 10
8 8 9 8 8 8 8 8 8 7 8 7 6 5 5 3 3 3 4 6 8 8 9 9 9 11 12 12 14 17 19 19 19 18 17 16 15 14 13 12 11 10 9
8 9 9 8 9 8 8 9 8 8 8 9 7 5 5 4 4 3 4 6 6 7 8 8 8 9 11 12 12 16 19 19 18 18 17 16 15 14 13 11 9 9 9
7 8 9 8 9 8 8 9 9 9 9 10 8 7 6 5 5 4 4 6 7 6 7 7 8 9 10 11 13 16 19 19 18 17 15 15 14 13 11 10 10 9 9
7 8 9 8 9 8 9 9 9 10 10 11 10 9 8 7 6 5 5 5 5 3 4 6 7 8 9 10 12 16 18 19 18 16 14 13 11 11 10 10 10 9 9
8 9 9 10 10 9 10 9 9 10 10 11 12 10 8 8 7 6 6 5 5 4 5 6 5 8 8 10 12 15 14 18 17 15 14 12 11 10 9 9 8 8 7
8 9 10 11 10 10 10 10 10 10 10 11 11 11 10 8 8 7 6 6 6 7 8 6 4 7 8 9 12 12 12 16 16 15 14 13 12 10 9 8 8 7 6
9 10 11 11 10 10 10 10 10 11 12 11 10 11 10 9 8 8 7 7 7 6 7 6 5 5 8 7 12 12 12 15 16 15 14 13 12 11 10 8 7 7 6
10 10 11 11 11 10 10 10 11 11 13 12 11 12 12 11 9 9 8 8 8 6 6 5 4 4 7 8 7 8 10 10 11 15 14 13 12 11 10 9 7 6 5
9 10 10 10 11 11 10 11 12 13 13 13 13 12 12 11 11 10 9 9 8 7 7 6 5 5 6 8 8 8 7 8 8 12 13 13 12 11 10 9 7 6 5
9 10 9 10 10 10 11 11 11 12 13 13 12 13 12 12 12 10 10 10 8 7 6 6 6 4 4 6 6 6 6 5 6 10 11 11 12 11 10 10 8 6 5
9 10 10 10 10 10 11 11 11 11 12 12 12 12 13 13 13 12 11 11 9 8 7 7 6 5 4 6 6 6 5 5 4 5 7 8 9 10 10 10 9 6 5
10 10 10 9 9 9 9 10 10 10 11 11 11 12 12 14 15 13 11 10 11 9 8 8 7 5 5 6 8 6 6 5 3 3 4 4 5 5 6 8 8 6 5
9 9 9 8 8 9 12 13 10 10 10 11 11 11 10 12 13 14 14 13 14 12 11 10 8 9 8 6 6 7 6 6 3 3 4 4 4 4 4 5 7 6 5
8 8 8 8 8 9 13 14 13 11 11 11 10 10 9 10 12 10 11 11 11 14 14 11 11 10 10 9 9 9 8 7 4 5 4 3 3 3 3 5 7 6 5
7 8 8 7 7 9 12 13 12 9 9 10 9 8 8 9 10 10 9 8 8 8 10 9 9 8 8 8 10 9 8 6 5 3 3 3 2 2 2 3 6 6 5
7 7 7 7 7 8 11 11 9 6 6 7 7 7 7 7 10 11 10 9 8 6 6 9 9 8 9 11 10 8 8 8 5 2 1 3 2 2 2 1 2 5 5
7 7 7 6 7 6 9 10 8 4 4 4 4 5 7 8 9 11 11 10 10 8 7 6 7 7 6 8 11 9 9 9 6 3 3 3 3 3 2 1 1 2 2
Wind_Direction
286 285 276 273 263 266 243 232 231 228 221 213 210 210 218 220 215 199 193 194 196 203 207 206 206 206 206 205 204 206 208 208 210 212 215 218 221 226 232 241 251 257 263
287 285 275 263 257 259 246 236 229 235 233 223 217 215 218 217 218 200 188 196 199 203 208 210 210 211 212 209 207 207 210 211 212 216 219 221 224 228 234 241 249 254 260
290 277 276 263 259 268 256 244 234 230 240 232 225 221 223 218 215 205 192 194 199 204 208 214 216 215 216 213 211 210 212 214 216 218 219 224 225 229 235 241 245 249 255
290 277 271 266 263 263 249 239 229 232 236 232 229 227 227 225 219 212 201 196 198 203 208 213 217 219 219 218 215 214 215 216 218 219 221 224 225 229 234 238 243 248 257
283 275 266 267 267 254 246 248 238 228 231 232 233 230 225 227 224 222 214 204 200 200 203 211 215 219 221 220 218 218 217 217 219 221 222 223 224 227 233 238 241 250 257
273 272 265 266 259 252 247 240 240 236 233 229 240 240 233 229 227 224 219 213 204 200 200 205 210 215 217 219 221 221 219 218 219 221 221 221 223 229 233 237 243 250 257
270 261 262 267 255 247 244 243 239 233 234 220 230 253 258 235 227 228 221 212 209 204 198 200 203 206 210 215 218 220 221 219 219 221 222 222 225 229 232 236 242 250 256
267 268 255 258 258 248 243 241 236 234 235 213 201 217 243 249 236 230 222 215 211 205 204 204 202 203 201 204 211 214 217 220 222 223 223 223 226 231 231 235 241 249 255
261 261 255 252 256 247 239 234 231 231 229 224 203 197 210 223 254 231 230 223 215 212 209 206 207 205 202 199 204 208 212 217 221 223 224 223 227 228 231 235 242 249 254
258 258 257 250 251 248 240 234 233 232 224 225 223 225 234 234 218 226 229 227 222 218 212 211 210 206 204 199 199 201 206 211 218 222 224 224 227 229 233 236 241 246 255
258 255 256 251 250 248 243 235 229 232 231 226 226 221 233 245 239 235 236 226 230 225 218 213 209 208 204 200 197 197 200 205 213 219 221 224 226 229 232 234 237 245 253
263 256 255 252 250 246 243 237 227 231 235 232 229 221 215 217 217 229 235 221 229 231 223 218 212 209 204 199 201 196 196 201 207 212 216 221 223 227 230 232 236 243 253
264 260 258 255 253 248 246 243 232 227 230 229 229 228 224 223 220 222 222 226 242 250 235 231 217 207 204 197 198 194 196 198 202 206 208 208 212 219 225 230 233 239 251
259 260 258 256 254 248 250 245 241 232 231 228 230 228 227 224 223 222 220 214 228 249 241 236 221 208 201 195 195 190 196 195 197 200 199 198 202 207 216 222 226 233 241
269 261 256 256 253 251 248 243 239 233 231 228 227 227 227 223 220 224 219 209 208 230 236 232 219 208 197 192 188 190 192 193 194 197 198 197 197 199 203 209 216 219 229
269 267 259 254 252 252 249 244 242 233 233 230 226 227 230 223 220 220 216 216 218 218 238 233 231 212 193 192 187 187 188 187 192 196 196 195 194 195 195 200 210 213 221
269 266 264 256 253 252 251 248 243 235 235 232 227 225 228 222 219 215 214 214 217 215 228 245 235 202 192 185 180 182 184 184 190 194 195 194 191 191 191 194 201 205 206
276 271 268 261 256 254 250 248 247 236 236 233 227 224 227 224 219 215 214 215 217 214 211 223 225 209 201 186 178 179 183 184 184 191 192 192 190 189 189 188 186 187 193
282 276 270 266 260 254 252 248 246 239 235 234 228 226 225 222 220 216 211 212 215 213 206 208 218 213 204 185 177 179 176 177 179 183 188 189 187 184 183 181 178 177 185
285 281 272 268 263 258 255 249 246 244 241 237 231 230 226 221 214 212 212 208 208 204 200 203 206 203 202 183 176 180 180 176 175 168 173 177 180 177 178 177 175 174 177
285 281 276 269 260 258 256 251 245 244 244 241 238 235 229 221 214 213 215 206 203 203 200 202 205 203 204 185 189 185 183 162 155 156 156 171 168 173 178 176 174 172 172
287 284 280 273 265 265 265 262 258 249 248 245 242 238 232 219 215 217 218 216 210 204 202 204 206 200 205 196 184 177 168 161 179 167 152 167 157 167 177 176 171 167 170
286 285 282 276 272 274 276 268 262 257 250 245 242 233 232 221 212 208 210 214 218 216 210 208 202 203 200 195 182 180 177 168 164 160 142 163 162 170 170 163 157 160 167
282 278 278 276 276 279 284 284 270 262 253 245 239 228 226 217 208 202 200 207 212 217 211 208 205 202 196 184 180 179 165 136 108 122 136 153 165 160 141 142 151 157 160
285 283 281 278 277 283 290 291 280 268 263 255 242 226 220 212 203 192 193 199 203 205 197 190 188 183 174 170 165 157 153 150 152 165 147 132 142 121 104 112 133 147 151
285 285 283 278 277 280 290 297 290 266 267 268 253 227 222 217 201 194 194 194 198 196 179 170 170 169 171 164 160 170 169 166 158 161 171 138 139 121 108 74 108 157 149
Height
1466 1467 1468 1469 1470 1471 1472 1473 1474 1475 1476 1478 1479 1481 1483 1485 1487 1489 1490 1491 1493 1495 1497 1498 1499 1501 1502 1503 1504 1505 1506 1507 1508 1509 1509 1510 1510 1511 1511 1511 1511 1511 1510
1462 1462 1463 1464 1465 1466 1467 1468 1469 1470 1472 1473 1474 1475 1477 1480 1482 1484 1485 1486 1488 1490 1492 1494 1495 1497 1498 1499 1500 1502 1503 1504 1505 1505 1506 1507 1507 1508 1508 1508 1508 1508 1507
1458 1458 1458 1459 1459 1461 1462 1463 1464 1465 1466 1468 1468 1470 1472 1474 1476 1478 1479 1481 1482 1484 1487 1489 1491 1492 1494 1495 1496 1498 1499 1500 1501 1502 1503 1504 1504 1504 1505 1505 1505 1504 1504
1454 1454 1454 1454 1455 1455 1456 1457 1458 1459 1461 1462 1463 1464 1466 1468 1470 1472 1474 1475 1477 1479 1481 1483 1485 1487 1489 1490 1492 1493 1495 1496 1497 1498 1499 1500 1501 1501 1501 1501 1501 1501 1501
1450 1449 1449 1450 1450 1450 1450 1452 1452 1454 1455 1456 1457 1459 1460 1461 1463 1465 1467 1469 1471 1473 1475 1477 1479 1482 1484 1486 1487 1489 1490 1492 1493 1494 1495 1496 1497 1497 1497 1498 1497 1497 1497
1444 1444 1444 1444 1445 1444 1445 1446 1447 1448 1450 1451 1452 1453 1454 1455 1457 1459 1461 1463 1465 1467 1469 1471 1473 1476 1478 1480 1482 1483 1485 1487 1488 1490 1491 1491 1492 1493 1493 1494 1494 1494 1493
1438 1438 1438 1439 1439 1438 1439 1440 1441 1443 1444 1446 1448 1448 1449 1450 1451 1453 1455 1457 1459 1461 1463 1465 1467 1470 1472 1474 1476 1478 1480 1482 1483 1485 1486 1487 1488 1489 1489 1489 1490 1490 1489
1433 1433 1432 1433 1433 1433 1433 1434 1436 1437 1438 1441 1442 1443 1443 1444 1444 1446 1449 1451 1453 1455 1457 1459 1461 1463 1465 1468 1470 1473 1475 1477 1478 1480 1481 1482 1483 1484 1484 1485 1485 1485 1485
1427 1427 1427 1427 1427 1427 1427 1428 1430 1431 1432 1434 1436 1438 1438 1437 1438 1440 1442 1444 1447 1449 1450 1453 1455 1457 1459 1462 1464 1467 1469 1471 1473 1475 1476 1477 1478 1479 1479 1480 1480 1481 1480
1420 1420 1420 1421 1421 1421 1421 1422 1423 1425 1427 1427 1429 1430 1433 1432 1433 1433 1435 1438 1441 1442 1444 1447 1449 1451 1453 1455 1458 1461 1463 1465 1467 1469 1471 1472 1473 1474 1475 1475 1475 1476 1476
1414 1414 1413 1413 1414 1414 1414 1415 1417 1418 1419 1420 1422 1423 1425 1426 1427 1427 1428 1431 1433 1435 1438 1440 1442 1445 1447 1449 1451 1454 1457 1459 1461 1463 1465 1467 1468 1469 1470 1470 1470 1471 1471
1406 1407 1406 1406 1407 1406 1407 1408 1409 1411 1413 1413 1415 1416 1417 1419 1420 1422 1422 1424 1426 1428 1431 1433 1435 1438 1441 1443 1445 1448 1451 1453 1456 1457 1460 1461 1463 1464 1465 1465 1465 1465 1466
1399 1399 1399 1399 1399 1399 1400 1401 1401 1403 1405 1406 1407 1408 1410 1412 1414 1416 1418 1419 1421 1422 1424 1426 1429 1431 1434 1436 1439 1442 1445 1447 1450 1452 1454 1456 1457 1459 1459 1460 1460 1461 1461
1392 1391 1392 1392 1391 1392 1392 1393 1394 1395 1397 1398 1400 1401 1403 1405 1407 1409 1412 1414 1415 1416 1417 1419 1422 1424 1427 1430 1433 1436 1439 1441 1444 1446 1448 1450 1452 1453 1454 1455 1456 1456 1456
1386 1385 1385 1384 1383 1384 1384 1384 1385 1387 1389 1390 1391 1394 1395 1397 1400 1403 1406 1408 1410 1410 1410 1412 1414 1417 1420 1424 1426 1429 1432 1435 1438 1440 1442 1444 1446 1447 1449 1450 1451 1451 1451
1379 1378 1377 1376 1375 1375 1375 1376 1377 1378 1380 1382 1384 1386 1387 1390 1392 1396 1398 1401 1403 1404 1404 1405 1407 1410 1414 1417 1420 1424 1426 1429 1432 1434 1437 1439 1440 1442 1443 1444 1445 1446 1446
1372 1370 1369 1368 1367 1367 1367 1368 1369 1370 1372 1373 1375 1377 1379 1382 1384 1388 1391 1393 1396 1398 1398 1399 1402 1405 1408 1411 1414 1417 1420 1423 1425 1428 1431 1433 1435 1436 1438 1439 1440 1441 1441
1365 1363 1361 1361 1360 1359 1359 1360 1361 1362 1364 1365 1367 1369 1371 1374 1377 1380 1383 1385 1388 1391 1393 1394 1396 1399 1401 1404 1408 1411 1414 1417 1420 1422 1425 1427 1429 1431 1433 1434 1435 1436 1436
1357 1356 1354 1353 1352 1352 1352 1353 1353 1354 1355 1357 1359 1360 1362 1366 1367 1371 1374 1378 1381 1384 1387 1389 1390 1393 1396 1398 1402 1405 1408 1411 1414 1417 1419 1422 1424 1426 1428 1429 1431 1432 1432
1350 1348 1347 1345 1345 1345 1345 1345 1346 1346 1347 1349 1350 1352 1354 1357 1359 1363 1366 1369 1374 1377 1380 1382 1384 1387 1390 1392 1396 1399 1402 1405 1408 1411 1414 1417 1420 1422 1423 1425 1426 1427 1427
1344 1342 1340 1338 1338 1338 1338 1338 1339 1339 1340 1341 1342 1344 1346 1349 1351 1355 1359 1362 1367 1369 1372 1375 1378 1381 1384 1386 1389 1393 1396 1399 1403 1406 1409 1412 1415 1417 1419 1420 1422 1423 1423
1339 1336 1333 1332 1331 1331 1331 1332 1332 1333 1333 1333 1334 1336 1338 1340 1344 1347 1351 1355 1359 1362 1365 1368 1370 1373 1376 1380 1384 1387 1390 1394 1397 1401 1404 1408 1411 1412 1414 1416 1417 1419 1419
1334 1331 1329 1327 1325 1324 1325 1324 1325 1325 1326 1326 1327 1328 1330 1332 1336 1339 1344 1348 1352 1355 1359 1361 1364 1367 1370 1374 1378 1382 1385 1388 1392 1396 1401 1403 1406 1408 1410 1412 1413 1415 1415
1329 1327 1324 1322 1321 1319 1319 1317 1316 1317 1318 1319 1320 1321 1323 1324 1328 1333 1336 1340 1344 1348 1351 1356 1359 1362 1367 1370 1374 1378 1381 1385 1389 1393 1397 1399 1402 1404 1407 1408 1410 1411 1412
1325 1322 1320 1318 1317 1315 1314 1312 1312 1312 1312 1313 1314 1316 1317 1319 1322 1326 1330 1333 1337 1341 1345 1350 1354 1358 1362 1366 1370 1374 1377 1381 1384 1389 1392 1395 1398 1401 1403 1404 1406 1408 1409
1321 1319 1316 1315 1313 1311 1310 1308 1309 1309 1308 1308 1309 1310 1312 1314 1317 1320 1323 1327 1330 1334 1339 1344 1349 1353 1357 1361 1365 1369 1372 1377 1380 1384 1388 1391 1394 1397 1400 1402 1403 1405 1406